Regional Weather Roundup
Issued by NWS

Home | Current Version | Previous Version | Text Only | Print | Product List | Glossary Off
Versions: 1 2 3 4 5 6 7 8 9 10 11 12 13 14 15 16 17 18 19 20 21 22 23 24 25 26 27 28 29 30 31 32 33 34 35 36 37 38 39 40 41 42 43 44 45 46 47 48 49 50

000
ASUS43 KOAX 231110
RWRNE

WEATHER ROUNDUP FOR NEBRASKA
NATIONAL WEATHER SERVICE OMAHA NE
600 AM CDT THU OCT 23 2014

NOTES: SATELLITE DATA IS BEING USED TO AUGMENT CLOUD COVER ABOVE
       12000 FEET.
       "FAIR" INDICATES FEW OR NO CLOUDS BELOW 12,000 FEET WITH NO
       SIGNIFICANT WEATHER AND/OR OBSTRUCTIONS TO VISIBILITY.

  * THESE STATIONS DO NOT REPORT WEATHER SUCH AS RAIN...SNOW OR FOG.

NEZ001>004-019>022-054>056-231200-
NEBRASKA PANHANDLE

CITY           SKY/WX    TMP DP  RH WIND       PRES   REMARKS
SCOTTSBLUFF    CLEAR     32  29  88 CALM      30.09F
ALLIANCE       CLEAR     27  22  81 W7        30.07F WCI  19
CHADRON        CLEAR     32  25  75 SW8       30.04F WCI  25
KIMBALL        CLEAR     35  33  92 W8        30.10F WCI  29
SIDNEY         CLEAR     35  31  85 W5        30.11F WCI  31
$$

NEZ057>060-069>072-079>082-231200-
SOUTHWEST NEBRASKA

CITY           SKY/WX    TMP DP  RH WIND       PRES   REMARKS
NORTH PLATTE   FOG       47  46  97 W6        30.09S VSB 1/4
IMPERIAL       CLEAR     39  31  72 W5        30.10F
LEXINGTON      FOG       48  47  97 NW3       30.08S VSB 1/4
MCCOOK         FOG       45  45 100 SW5       30.10S VSB<1/4
OGALLALA       CLEAR     34  32  93 W5        30.09F WCI  30
$$

NEZ005>010-023>029-035>040-094-231200-
NORTH CENTRAL NEBRASKA

CITY           SKY/WX    TMP DP  RH WIND       PRES   REMARKS
VALENTINE      CLEAR     35  33  92 SW5       30.03F WCI  31
AINSWORTH      CLEAR     43  42  97 SW6       30.04S
BROKEN BOW     FOG       40  39  97 CALM      30.07R VSB 1/2
O`NEILL        FOG       38  38 100 SW3       30.04F VSB 1/2
ORD            FOG       38  38 100 CALM      30.06R VSB 1/4
THEDFORD       DRZL/FOG  51  50  99 W6        30.07F VSB 1/4
$$

NEZ041-046>049-061>064-073>077-083>087-231200-
SOUTH CENTRAL NEBRASKA

CITY           SKY/WX    TMP DP  RH WIND       PRES   REMARKS
GRAND ISLAND   FOG       45  44  97 W5        30.07R VSB 1/4
AURORA         FOG       51  51 100 CALM      30.06S VSB<1/4
HASTINGS       FOG       50  49  96 N3        30.06R VSB 1/4
HEBRON         FOG       51  49  93 CALM      30.05S VSB<1/4
HOLDREGE       FOG       46  45  97 CALM      30.08R VSB 1/4
KEARNEY *      CLOUDY    48  46  93 W5        30.08S VSB<1/4
YORK           FOG       55  55 100 N6        30.07R VSB 1/2
$$

NEZ011>018-030>034-042>045-231200-
NORTHEAST NEBRASKA

CITY           SKY/WX    TMP DP  RH WIND       PRES   REMARKS
NORFOLK        FOG       43  43 100 CALM      30.05R VSB 1/4
ALBION           N/A     38  36  94 CALM      30.06S FOG
BLAIR          CLOUDY    61  59  92 CALM      30.03S FOG
COLUMBUS *     CLOUDY    45  41  87 CALM      30.07S VSB 1/4
FREMONT        FOG       54  53  97 W5        30.05R VSB 1/4
TEKAMAH        CLOUDY    57  56  96 NW6       30.03R FOG
WAYNE          FOG       42  41  99 SW5       30.05R VSB 1
$$

NEZ050>053-065>068-078-088>093-231200-
SOUTHEAST NEBRASKA

CITY           SKY/WX    TMP DP  RH WIND       PRES   REMARKS
LINCOLN        PTCLDY    60  58  92 CALM      30.05S FOG
OMAHA EPPLEY   CLOUDY    62  59  90 S5        30.03S
BEATRICE       CLEAR     54  54  99 CALM      30.05R FOG
FALLS CITY     CLOUDY    62  60  93 S9        30.04F
NEBRASKA CITY  CLOUDY    60  60 100 SW8       30.04S FOG
PLATTSMOUTH    CLOUDY    60  58  92 S8        30.04S
$$

NEZ044-045-051>053-067-231200-
OMAHA AREA

CITY           SKY/WX    TMP DP  RH WIND       PRES   REMARKS
OMAHA EPPLEY   CLOUDY    62  59  90 S5        30.03S
BLAIR          CLOUDY    61  59  92 CALM      30.03S FOG
FREMONT        FOG       54  53  97 W5        30.05R VSB 1/4
MILLARD        CLEAR     60  58  94 CALM      30.03S FOG
OFFUTT AFB     MOCLDY    61  61 100 S3        30.02S
PLATTSMOUTH    CLOUDY    60  58  92 S8        30.04S
WAHOO          FAIR      56  54  92 NW5       30.05R FOG
$$



USA.gov is the U.S. government's official web portal to all federal, state and local government web resources and services.